User: anonymous   Login
Location: Unspecified
(0.0000°N, 0.0000°E)
Time: 14:13:13
(UTC+00:00)
Language:

METEOR 2-8 DEB - Orbit

View from above orbital plane
View from above orbital plane
View from above satellite
View from above satellite

Ground track
Ground track

The orbit data is extracted from the following two-line orbital elements,

1 36329U 82025P   24037.03487273  .00011005  00000-0  46408-2 0  9991
2 36329  82.5036 155.0861 0010075 351.1420   8.9583 14.25547987501476
Epoch (UTC): 06 February 2024 00:50:13
Eccentricity: 0.0010075
inclination: 82.5036°
perigee height: 799 km
apogee height: 814 km
right ascension of ascending node: 155.0861°
argument of perigee: 351.1420°
revolutions per day: 14.25547987
mean anomaly at epoch: 8.9583°
orbit number at epoch: 50147

The dashed part of the orbit path shows where the satellite is in the earth's shadow,  

DLR